BGKK

Kulusuk Airport

Kulusuk, Greenland
Issued Wind Visibility Ceiling Temperature Dew Point Humidity Barometer
Oct-20
11:50 UTC
250°
5 KTS
6,003 meters Overcast
2,000' AGL
C
34° F
-1° C
30° F
87% 29.41" Hg
996 hPa
MVFR
Oct-20
10:50 UTC
220°
4 KTS
10,000+ meters Overcast
2,000' AGL
C
36° F
C
32° F
87% 29.41" Hg
996 hPa
MVFR
Oct-20
09:50 UTC
200°
5 KTS
10,000+ meters Overcast
2,000' AGL
C
36° F
C
34° F
93% 29.41" Hg
996 hPa
MVFR
Oct-20
08:50 UTC
220°
3 KTS
10,000+ meters Overcast
2,000' AGL
C
37° F
C
34° F
87% 29.41" Hg
996 hPa
MVFR
Oct-20
07:50 UTC
090°
11 KTS
  Broken
2,200' AGL
C
39° F
C
32° F
75% 29.41" Hg
996 hPa
Oct-20
06:50 UTC
070°
17 KTS
Gust 30 KTS
  Broken
2,100' AGL
C
39° F
C
32° F
75% 29.41" Hg
996 hPa
Oct-20
05:50 UTC
070°
23 KTS
Gust 33 KTS
  Broken
2,900' AGL
C
41° F
-1° C
30° F
66% 29.41" Hg
996 hPa
Oct-20
04:50 UTC
070°
28 KTS
Gust 45 KTS
  Broken
3,600' AGL
C
43° F
-2° C
28° F
57% 29.38" Hg
995 hPa
Oct-20
03:50 UTC
080°
38 KTS
Gust 59 KTS
  Broken
2,300' AGL
C
41° F
-1° C
30° F
66% 29.38" Hg
995 hPa
Oct-20
02:50 UTC
070°
45 KTS
Gust 63 KTS
  Overcast
2,700' AGL
C
39° F
C
32° F
75% 29.35" Hg
994 hPa
Oct-20
01:50 UTC
070°
45 KTS
Gust 66 KTS
  Broken
2,100' AGL
C
39° F
C
32° F
75% 29.35" Hg
994 hPa
Oct-20
00:50 UTC
070°
42 KTS
Gust 60 KTS
  Broken
1,900' AGL
C
39° F
C
34° F
81% 29.35" Hg
994 hPa
Oct-19
23:50 UTC
080°
43 KTS
Gust 63 KTS
  Broken
2,000' AGL
C
39° F
C
34° F
81% 29.32" Hg
993 hPa
Oct-19
22:50 UTC
070°
39 KTS
Gust 56 KTS
  Broken
2,100' AGL
C
37° F
C
32° F
81% 29.32" Hg
993 hPa
Oct-19
21:50 UTC
070°
37 KTS
Gust 59 KTS
  Broken
1,900' AGL
C
37° F
C
32° F
81% 29.29" Hg
992 hPa
Oct-19
20:50 UTC
080°
37 KTS
Gust 55 KTS
  Broken
2,000' AGL
C
39° F
C
32° F
75% 29.29" Hg
992 hPa
Oct-19
19:50 UTC
070°
35 KTS
Gust 49 KTS
  Broken
1,800' AGL
C
37° F
C
32° F
81% 29.32" Hg
993 hPa
Oct-19
18:50 UTC
070°
33 KTS
Gust 46 KTS
5,005 meters Overcast
1,500' AGL
C
37° F
C
32° F
81% 29.29" Hg
992 hPa
MVFR
Oct-19
17:50 UTC
070°
35 KTS
Gust 52 KTS
5,005 meters Overcast
1,500' AGL
C
36° F
C
32° F
87% 29.29" Hg
992 hPa
MVFR
Oct-19
16:50 UTC
080°
33 KTS
Gust 53 KTS
6,003 meters Overcast
1,800' AGL
C
37° F
C
32° F
81% 29.29" Hg
992 hPa
MVFR
Oct-19
15:50 UTC
080°
34 KTS
Gust 53 KTS
6,003 meters Overcast
1,800' AGL
C
36° F
C
34° F
93% 29.29" Hg
992 hPa
MVFR
Oct-19
14:50 UTC
070°
33 KTS
Gust 49 KTS
6,003 meters Overcast
1,800' AGL
C
37° F
C
32° F
81% 29.32" Hg
993 hPa
MVFR
Oct-19
13:50 UTC
070°
33 KTS
Gust 57 KTS
6,003 meters Overcast
1,800' AGL
C
37° F
C
32° F
81% 29.32" Hg
993 hPa
MVFR
Oct-19
12:50 UTC
070°
32 KTS
Gust 45 KTS
6,003 meters Overcast
1,800' AGL
C
37° F
C
32° F
81% 29.35" Hg
994 hPa
MVFR